| time (UTC) | temp F | wind direction | speed MPH | gust MPH | rain 1hr in | rain 24hr in | rain mn in | humidity % | barometer mb |
| 20260504045955 | 55 | 320 | 8.0 | 9.0 | 0.00 | 0.00 | 0.00 | 63 | 1024.2 |
| 20260504045055 | 55 | 318 | 8.0 | 10.0 | 0.00 | 0.00 | 0.00 | 63 | 1024.3 |
| 20260504044155 | 56 | 321 | 7.0 | 10.0 | 0.00 | 0.00 | 0.00 | 61 | 1024.0 |
| 20260504043255 | 57 | 318 | 7.0 | 11.0 | 0.00 | 0.00 | 0.00 | 60 | 1024.1 |
| 20260504042355 | 57 | 321 | 8.0 | 10.0 | 0.00 | 0.00 | 0.00 | 60 | 1024.1 |
| 20260504041455 | 58 | 321 | 6.0 | 11.0 | 0.00 | 0.00 | 0.00 | 57 | 1024.0 |
| 20260504040555 | 58 | 323 | 7.0 | 11.0 | 0.00 | 0.00 | 0.00 | 56 | 1023.9 |
| 20260504034755 | 60 | 338 | 5.0 | 10.0 | 0.00 | 0.00 | 0.00 | 54 | 1023.7 |
| 20260504033855 | 59 | 332 | 8.0 | 10.0 | 0.00 | 0.00 | 0.00 | 59 | 1023.6 |
| 20260504032955 | 58 | 316 | 8.0 | 10.0 | 0.00 | 0.00 | 0.00 | 63 | 1023.6 |
| 20260504032055 | 59 | 314 | 8.0 | 10.0 | 0.00 | 0.00 | 0.00 | 62 | 1023.5 |
| 20260504030254 | 60 | 314 | 8.0 | 10.0 | 0.00 | 0.00 | 0.00 | 60 | 1023.2 |
| 20260504025355 | 61 | 314 | 7.0 | 9.0 | 0.00 | 0.00 | 0.00 | 58 | 1023.3 |
| 20260504024454 | 62 | 327 | 6.0 | 10.0 | 0.00 | 0.00 | 0.00 | 53 | 1023.2 |
| 20260504023554 | 62 | 329 | 8.0 | 11.0 | 0.00 | 0.00 | 0.00 | 54 | 1023.2 |
| 20260504022655 | 62 | 318 | 10.0 | 12.0 | 0.00 | 0.00 | 0.00 | 52 | 1023.1 |
| 20260504021754 | 62 | 320 | 9.0 | 11.0 | 0.00 | 0.00 | 0.00 | 53 | 1022.8 |
| 20260504020855 | 62 | 314 | 9.0 | 11.0 | 0.00 | 0.00 | 0.00 | 55 | 1023.0 |
| 20260504015954 | 62 | 315 | 9.0 | 11.0 | 0.00 | 0.00 | 0.00 | 56 | 1022.8 |
| 20260504015055 | 63 | 315 | 9.0 | 11.0 | 0.00 | 0.00 | 0.00 | 54 | 1022.7 |
| 20260504014154 | 63 | 314 | 9.0 | 11.0 | 0.00 | 0.00 | 0.00 | 54 | 1022.7 |
| 20260504013254 | 64 | 316 | 9.0 | 11.0 | 0.00 | 0.00 | 0.00 | 52 | 1022.6 |
| 20260504010554 | 67 | 314 | 9.0 | 10.0 | 0.00 | 0.00 | 0.00 | 45 | 1022.5 |
| 20260504003854 | 75 | 314 | 5.0 | 8.0 | 0.00 | 0.00 | 0.00 | 32 | 1022.9 |
| 20260504002954 | 78 | 324 | 5.0 | 7.0 | 0.00 | 0.00 | 0.00 | 25 | 1023.0 |
| 20260504002055 | 82 | 335 | 4.0 | 8.0 | 0.00 | 0.00 | 0.00 | 20 | 1023.0 |
| 20260504001154 | 85 | 38 | 1.0 | 4.0 | 0.00 | 0.00 | 0.00 | 12 | 1023.2 |
| 20260504000254 | 85 | 53 | 1.0 | 3.0 | 0.00 | 0.00 | 0.00 | 10 | 1023.3 |
| 20260503235354 | 85 | 158 | 1.0 | 8.0 | 0.00 | 0.00 | 0.00 | 10 | 1023.4 |
| 20260503231754 | 84 | 156 | 4.0 | 8.0 | 0.00 | 0.00 | 0.00 | 10 | 1023.8 |
| 20260503230854 | 84 | 155 | 2.0 | 7.0 | 0.00 | 0.00 | 0.00 | 10 | 1023.9 |
| 20260503225954 | 84 | 144 | 2.0 | 8.0 | 0.00 | 0.00 | 0.00 | 10 | 1024.1 |
| 20260503225054 | 84 | 176 | 3.0 | 8.0 | 0.00 | 0.00 | 0.00 | 10 | 1024.2 |
| 20260503223254 | 85 | 139 | 4.0 | 5.0 | 0.00 | 0.00 | 0.00 | 10 | 1024.5 |
| 20260503222354 | 84 | 120 | 3.0 | 6.0 | 0.00 | 0.00 | 0.00 | 10 | 1024.7 |
| 20260503221454 | 84 | 121 | 0.0 | 6.0 | 0.00 | 0.00 | 0.00 | 10 | 1024.8 |
| 20260503220554 | 83 | 128 | 2.0 | 7.0 | 0.00 | 0.00 | 0.00 | 10 | 1025.0 |
| 20260503212954 | 83 | 110 | 2.0 | 5.0 | 0.00 | 0.00 | 0.00 | 10 | 1025.7 |
| 20260503212054 | 82 | 144 | 1.0 | 6.0 | 0.00 | 0.00 | 0.00 | 10 | 1025.9 |
| 20260503211154 | 82 | 134 | 4.0 | 6.0 | 0.00 | 0.00 | 0.00 | 10 | 1025.9 |
| 20260503210254 | 82 | 135 | 2.0 | 7.0 | 0.00 | 0.00 | 0.00 | 10 | 1026.2 |
| 20260503205354 | 81 | 131 | 4.0 | 8.0 | 0.00 | 0.00 | 0.00 | 10 | 1026.3 |
| 20260503204454 | 81 | 127 | 5.0 | 8.0 | 0.00 | 0.00 | 0.00 | 10 | 1026.4 |
| 20260503202654 | 80 | 158 | 3.0 | 7.0 | 0.00 | 0.00 | 0.00 | 10 | 1026.6 |
| 20260503201754 | 80 | 187 | 1.0 | 8.0 | 0.00 | 0.00 | 0.00 | 10 | 1026.8 |
| 20260503200854 | 79 | 222 | 4.0 | 11.0 | 0.00 | 0.00 | 0.00 | 10 | 1026.9 |
| 20260503195954 | 79 | 185 | 8.0 | 11.0 | 0.00 | 0.00 | 0.00 | 10 | 1027.2 |
| 20260503195054 | 78 | 190 | 7.0 | 10.0 | 0.00 | 0.00 | 0.00 | 10 | 1027.3 |
| 20260503194154 | 78 | 159 | 4.0 | 9.0 | 0.00 | 0.00 | 0.00 | 13 | 1027.6 |
| 20260503193254 | 77 | 156 | 2.0 | 6.0 | 0.00 | 0.00 | 0.00 | 12 | 1027.7 |
| 20260503191453 | 75 | 162 | 2.0 | 6.0 | 0.00 | 0.00 | 0.00 | 19 | 1027.9 |
| 20260503190554 | 73 | 129 | 1.0 | 8.0 | 0.00 | 0.00 | 0.00 | 22 | 1028.2 |
| 20260503185654 | 73 | 127 | 5.0 | 8.0 | 0.00 | 0.00 | 0.00 | 22 | 1028.4 |
| 20260503183853 | 72 | 116 | 2.0 | 8.0 | 0.00 | 0.00 | 0.00 | 24 | 1028.9 |
| 20260503182953 | 71 | 116 | 4.0 | 8.0 | 0.00 | 0.00 | 0.00 | 25 | 1029.1 |
| 20260503182054 | 71 | 99 | 3.0 | 10.0 | 0.00 | 0.00 | 0.00 | 26 | 1029.4 |
| 20260503181153 | 70 | 110 | 2.0 | 8.0 | 0.00 | 0.00 | 0.00 | 29 | 1029.4 |
| 20260503180254 | 68 | 109 | 2.0 | 9.0 | 0.00 | 0.00 | 0.00 | 30 | 1029.6 |
| 20260503175353 | 66 | 130 | 3.0 | 10.0 | 0.00 | 0.00 | 0.00 | 34 | 1029.8 |
| 20260503174453 | 67 | 93 | 4.0 | 8.0 | 0.00 | 0.00 | 0.00 | 31 | 1029.7 |
| 20260503173553 | 67 | 61 | 3.0 | 8.0 | 0.00 | 0.00 | 0.00 | 32 | 1029.9 |
| 20260503172653 | 66 | 91 | 3.0 | 6.0 | 0.00 | 0.00 | 0.00 | 33 | 1030.1 |
| 20260503170853 | 64 | 114 | 3.0 | 8.0 | 0.00 | 0.00 | 0.00 | 39 | 1030.4 |
| 20260503130553 | 39 | 2 | 3.0 | 6.0 | 0.00 | 0.00 | 0.00 | 82 | 1032.1 |
| 20260503080852 | 44 | 322 | 5.0 | 8.0 | 0.00 | 0.00 | 0.00 | 75 | 1031.5 |
| 20260503072352 | 46 | 314 | 6.0 | 8.0 | 0.00 | 0.00 | 0.00 | 73 | 1031.1 |
| 20260503071452 | 47 | 320 | 5.0 | 8.0 | 0.00 | 0.00 | 0.00 | 74 | 1030.9 |
| 20260503070552 | 47 | 330 | 6.0 | 8.0 | 0.00 | 0.00 | 0.00 | 74 | 1030.9 |